This is the latest recevied weather packets stored in our database for station/object K5WNG. If no packets are shown the sender has not sent any weather packets the latest 10 day(s).
| Time | Temp. | Humidity | Pressure | Rain* | Wind** | Luminosity | Snow |
|---|---|---|---|---|---|---|---|
| 1777254917 | 26.11° C | 80% | 1006.8 hPa | 0 mm | - | 0 W/m² | - |
| 1777254620 | 26.11° C | 80% | 1006.8 hPa | 0 mm | - | 0 W/m² | - |
| 1777254317 | 26.11° C | 80% | 1007 hPa | 0 mm | - | 0 W/m² | - |
| 1777254020 | 26.11° C | 80% | 1007.1 hPa | 0 mm | - | 0 W/m² | - |
| 1777253717 | 26.11° C | 80% | 1007.1 hPa | 0 mm | - | 0 W/m² | - |
| 1777253417 | 26.11° C | 80% | 1006.9 hPa | 0 mm | - | 0 W/m² | - |
| 1777253121 | 26.67° C | 79% | 1006.7 hPa | 0 mm | - | 0 W/m² | - |
| 1777252818 | 26.67° C | 79% | 1006.5 hPa | 0 mm | - | 1 W/m² | - |
| 1777252517 | 26.67° C | 79% | 1006.3 hPa | 0 mm | - | 1 W/m² | - |
| 1777252221 | 26.67° C | 78% | 1006.1 hPa | 0 mm | - | 3 W/m² | - |
| 1777251918 | 26.67° C | 78% | 1006.1 hPa | 0 mm | - | 4 W/m² | - |
| 1777251618 | 27.22° C | 77% | 1006.4 hPa | 0 mm | - | 7 W/m² | - |
| 1777251318 | 27.22° C | 77% | 1006.6 hPa | 0 mm | - | 9 W/m² | - |
| 1777251018 | 27.22° C | 76% | 1006.6 hPa | 0 mm | - | 11 W/m² | - |
| 1777250721 | 27.22° C | 76% | 1006.7 hPa | 0 mm | - | 16 W/m² | - |
| 1777250421 | 27.22° C | 76% | 1006.9 hPa | 0 mm | - | 14 W/m² | - |
| 1777250118 | 27.22° C | 76% | 1006.9 hPa | 0 mm | - | 12 W/m² | - |
| 1777249818 | 27.22° C | 76% | 1006.8 hPa | 0 mm | - | 14 W/m² | - |
| 1777249521 | 27.78° C | 75% | 1006.7 hPa | 0 mm | - | 16 W/m² | - |
| 1777249221 | 27.78° C | 75% | 1006.7 hPa | 0 mm | - | 23 W/m² | - |
| 1777248915 | 27.78° C | 75% | 1006.6 hPa | 0 mm | - | 37 W/m² | - |
| 1777248620 | 27.78° C | 74% | 1006.5 hPa | 0 mm | - | 61 W/m² | - |
| 1777248316 | 28.33° C | 73% | 1006.3 hPa | 0 mm | - | 72 W/m² | - |
* Rain latest hour (hover to see other rain measurements)
** Current wind speed in m/s (hover to see current wind gust speed)